<?xml version="1.0"?>
<gpx xmlns="http://www.topografix.com/GPX/1/1" xmlns:xsi="http://www.w3.org/2001/XMLSchema-instance" version="1.1" creator="GPX RubyGem 1.0.0 -- http://dougfales.github.io/gpx/" xsi:schemaLocation="http://www.topografix.com/GPX/1/1 http://www.topografix.com/GPX/1/1/gpx.xsd">
  <metadata>
    <name/>
    <time>2026-05-10T03:31:17+00:00</time>
    <bound minlat="90.0" minlon="180.0" maxlat="-90.0" maxlon="-180.0"/>
  </metadata>
  <trk>
    <name/>
    <trkseg>
      <trkpt lat="52.120951" lon="9.240509">
        <time>1970-01-01T00:00:00+00:00</time>
        <ele>102.0</ele>
      </trkpt>
      <trkpt lat="52.121242" lon="9.240756">
        <time>1970-01-01T00:00:00+00:00</time>
        <ele>100.0</ele>
      </trkpt>
      <trkpt lat="52.121397" lon="9.24031">
        <time>1970-01-01T00:00:00+00:00</time>
        <ele>101.0</ele>
      </trkpt>
      <trkpt lat="52.122789" lon="9.236734">
        <time>1970-01-01T00:00:00+00:00</time>
        <ele>99.0</ele>
      </trkpt>
      <trkpt lat="52.122835" lon="9.236676">
        <time>1970-01-01T00:00:00+00:00</time>
        <ele>99.0</ele>
      </trkpt>
      <trkpt lat="52.122931" lon="9.23665">
        <time>1970-01-01T00:00:00+00:00</time>
        <ele>99.0</ele>
      </trkpt>
      <trkpt lat="52.124038" lon="9.236922">
        <time>1970-01-01T00:00:00+00:00</time>
        <ele>95.0</ele>
      </trkpt>
      <trkpt lat="52.124002" lon="9.236585">
        <time>1970-01-01T00:00:00+00:00</time>
        <ele>95.0</ele>
      </trkpt>
      <trkpt lat="52.123907" lon="9.236036">
        <time>1970-01-01T00:00:00+00:00</time>
        <ele>95.0</ele>
      </trkpt>
      <trkpt lat="52.12376" lon="9.235502">
        <time>1970-01-01T00:00:00+00:00</time>
        <ele>96.0</ele>
      </trkpt>
      <trkpt lat="52.12354" lon="9.234863">
        <time>1970-01-01T00:00:00+00:00</time>
        <ele>97.0</ele>
      </trkpt>
      <trkpt lat="52.123459" lon="9.234512">
        <time>1970-01-01T00:00:00+00:00</time>
        <ele>98.0</ele>
      </trkpt>
      <trkpt lat="52.123427" lon="9.234288">
        <time>1970-01-01T00:00:00+00:00</time>
        <ele>98.0</ele>
      </trkpt>
      <trkpt lat="52.122559" lon="9.233453">
        <time>1970-01-01T00:00:00+00:00</time>
        <ele>101.0</ele>
      </trkpt>
      <trkpt lat="52.122324" lon="9.233246">
        <time>1970-01-01T00:00:00+00:00</time>
        <ele>103.0</ele>
      </trkpt>
      <trkpt lat="52.121919" lon="9.232748">
        <time>1970-01-01T00:00:00+00:00</time>
        <ele>111.0</ele>
      </trkpt>
      <trkpt lat="52.121833" lon="9.232665">
        <time>1970-01-01T00:00:00+00:00</time>
        <ele>113.0</ele>
      </trkpt>
      <trkpt lat="52.121833" lon="9.232665">
        <time>1970-01-01T00:00:00+00:00</time>
        <ele>113.0</ele>
      </trkpt>
      <trkpt lat="52.121919" lon="9.232748">
        <time>1970-01-01T00:00:00+00:00</time>
        <ele>111.0</ele>
      </trkpt>
      <trkpt lat="52.122324" lon="9.233246">
        <time>1970-01-01T00:00:00+00:00</time>
        <ele>103.0</ele>
      </trkpt>
      <trkpt lat="52.122559" lon="9.233453">
        <time>1970-01-01T00:00:00+00:00</time>
        <ele>101.0</ele>
      </trkpt>
      <trkpt lat="52.123427" lon="9.234288">
        <time>1970-01-01T00:00:00+00:00</time>
        <ele>98.0</ele>
      </trkpt>
      <trkpt lat="52.123459" lon="9.234512">
        <time>1970-01-01T00:00:00+00:00</time>
        <ele>98.0</ele>
      </trkpt>
      <trkpt lat="52.12354" lon="9.234863">
        <time>1970-01-01T00:00:00+00:00</time>
        <ele>97.0</ele>
      </trkpt>
      <trkpt lat="52.12376" lon="9.235502">
        <time>1970-01-01T00:00:00+00:00</time>
        <ele>96.0</ele>
      </trkpt>
      <trkpt lat="52.123907" lon="9.236036">
        <time>1970-01-01T00:00:00+00:00</time>
        <ele>95.0</ele>
      </trkpt>
      <trkpt lat="52.124002" lon="9.236585">
        <time>1970-01-01T00:00:00+00:00</time>
        <ele>95.0</ele>
      </trkpt>
      <trkpt lat="52.124038" lon="9.236922">
        <time>1970-01-01T00:00:00+00:00</time>
        <ele>95.0</ele>
      </trkpt>
      <trkpt lat="52.122931" lon="9.23665">
        <time>1970-01-01T00:00:00+00:00</time>
        <ele>99.0</ele>
      </trkpt>
      <trkpt lat="52.122835" lon="9.236676">
        <time>1970-01-01T00:00:00+00:00</time>
        <ele>99.0</ele>
      </trkpt>
      <trkpt lat="52.122789" lon="9.236734">
        <time>1970-01-01T00:00:00+00:00</time>
        <ele>99.0</ele>
      </trkpt>
      <trkpt lat="52.121397" lon="9.24031">
        <time>1970-01-01T00:00:00+00:00</time>
        <ele>101.0</ele>
      </trkpt>
      <trkpt lat="52.121242" lon="9.240756">
        <time>1970-01-01T00:00:00+00:00</time>
        <ele>100.0</ele>
      </trkpt>
      <trkpt lat="52.120951" lon="9.240509">
        <time>1970-01-01T00:00:00+00:00</time>
        <ele>102.0</ele>
      </trkpt>
    </trkseg>
  </trk>
</gpx>
